User: anonymous   Login
Location: Roc des P�zouls
(43.9667°N, 3.5500°E)
Time: 12:30:12
(UTC+00:00)
Language:

Cosmos 1980 Rocket - Orbit

View from above orbital plane
View from above orbital plane
View from above satellite
View from above satellite

Ground track
Ground track

The orbit data is extracted from the following two-line orbital elements,

1 19650U 88102B   20028.81431945 -.00000142  00000-0 -47800-4 0  9999
2 19650  70.9985 165.6416 0014094 177.8777 182.2408 14.15787051611251
Epoch (UTC): 28 January 2020 19:32:37
Eccentricity: 0.0014094
inclination: 70.9985°
perigee height: 829 km
apogee height: 850 km
right ascension of ascending node: 165.6416°
argument of perigee: 177.8777°
revolutions per day: 14.15787051
mean anomaly at epoch: 182.2408°
orbit number at epoch: 61125

The dashed part of the orbit path shows where the satellite is in the earth's shadow,  

DLR